Back to catalog

FENGYUN 1C DEB

AliveSSO
NORAD 36238·DEBRIS·🇨🇳 China

Launched May 10, 1999 from Taiyuan Satellite Launch Center

Loading…

Next Passes (next 24 hours)

TLE

FreshSource: Space-Track

Epoch: Sep 13, 2026, 15:01 UTC

1 36238U 99025DVP 26256.62608952  .00000056  00000-0  53276-4 0  9994
2 36238  98.6822 225.0772 0020387 215.6257 144.3556 14.12461149908987

Track FENGYUN 1C DEB in real time with AllMySat

Download on the App Store